Regional Weather Roundup
Issued by NWS Pendleton, OR

Home | Current Version | Previous Version | Text Only | Print | Product List | Glossary On
Versions: 1 2 3 4 5 6 7 8 9 10 11 12 13 14 15 16 17 18 19 20 21 22 23 24 25 26 27 28 29 30 31 32 33 34 35 36 37 38 39 40 41 42 43 44 45 46 47 48 49 50
000
ASUS46 KPDT 020925
RWRPDT
PENDLETON REGIONAL WEATHER ROUNDUP
NATIONAL WEATHER SERVICE PENDLETON OREGON
200 AM PDT THU APR 2 2015

NOTE: FAIR INDICATES FEW OR NO CLOUDS BELOW 12,000 FEET WITH NO
SIGNIFICANT WEATHER AND/OR OBSTRUCTIONS TO VISIBILITY.

# INDICATES UNOFFICIAL STATION AND DATA

WAZ520-021010-
EAST SLOPES OF WASHINGTON CASCADES

CITY            SKY/WX      TMP DP  RH  WIND    PRES   REMARKS
#BUMPING DAM    N/A         33  N/A N/A W9      N/A
#CLE ELUM HS    N/A         36  29  75  CALM    30.19R
#CLE ELUM LAKE  N/A         32  29  89  CALM    30.28R
#CLIFFDEL 2NW   N/A         34  28  78  NW6     N/A
#GLENWOOD       N/A         25  23  92  CALM    30.29R
#MANASTASH CYN  N/A         36  24  61  CALM    30.17R
#NELSON         N/A         35  31  85  CALM    30.30R
#NELSON 3SW     N/A         33  28  82  CALM    30.49R
#NILE           N/A         35  29  78  CALM    29.53R
#RONALD 2NW     N/A         34  -12 13  NE2     30.07R
#SNOWDEN        N/A         34  27  75  CALM    N/A
#TEANAWAY 4NE   N/A         33  30  89  CALM    N/A
#TROUT LAKE 1NE N/A         37  31  79  W6      30.29R
$$

WAZ521-021010-
SIMCOE HIGHLANDS

CITY            SKY/WX      TMP DP  RH  WIND    PRES   REMARKS
#BICKLETON HS   N/A         37  17  44  W9      N/A
#CENTERVILLE 4W N/A         38  34  85  NW14    29.97R WCI 30
#CENTERVILLE 1SWN/A         35  31  85  W2      30.26R
#GOLDENDALE     N/A         34  32  92  W2      N/A
#GOLDENDALE 1NE N/A         35  27  72  SW2     N/A
#GOLDENDALE 5WNWN/A         35  31  85  NW5     30.27R
#GOODNOE HILLS  N/A         38  32  79  W9      N/A
#LYLE 6NE       N/A         37  34  89  SW3     30.28S
$$

WAZ026-021010-
KITTITAS VALLEY

CITY            SKY/WX      TMP DP  RH  WIND    PRES   REMARKS
ELLENSBURG AP   PTCLDY      39  30  70  NW14    30.22R WCI 31
#ELLENSBURG CWU N/A         39  31  73  N9      30.19R
#ELLENSBURG 3NE N/A         37  31  79  N7      30.21R
#ELLENSBURG 1E  N/A         39  28  64  NW2     N/A
#KITTITAS 4N    N/A         37  30  75  W10     28.51R
#KITTITAS 3S    N/A         40  32  73  NW8     30.23R
#THORP 6N       N/A         35  29  78  NW15G31 30.28R WCI 25
$$

WAZ027-021010-
YAKIMA VALLEY

CITY            SKY/WX      TMP DP  RH  WIND    PRES   REMARKS
SUNNYSIDE AP    CLEAR       36  28  72  W3      30.24R
YAKIMA AIRPORT  PTCLDY      38  26  62  W9      30.23R
YAKIMA-VAGABOND PTCLDY      39  27  62  E5      30.23R
#DONALD 2NE     N/A         41  21  44  CALM    29.08R
#GRANDVIEW      N/A         40  27  59  W1      30.26R
#MABTON         N/A         41  30  65  W3      30.23R
#MOXEE 2E       N/A         40  22  48  CALM    30.18R
#NACHES 2SW     N/A         41  31  67  W8      30.22R
#OUTLOOK DOT    N/A         N/A N/A N/A W5      N/A
#SELAH 8E       N/A         29  22  75  SE3     N/A
#TERRACE HTS    N/A         41  29  62  NW2     30.21R
#TOPPENISH      N/A         43  29  57  CALM    30.16R
#WAPATO 4NE     N/A         41  21  44  CALM    29.08R
#WEST VALLEY    N/A         43  29  57  N6      30.22S
#W YAKIMA       N/A         43  30  60  W5      30.25R
#WHITE SWAN 5E  N/A         31  25  78  S1      30.25R
#WILEY CITY 3W  N/A         30  16  55  CALM    30.22R
$$

WAZ028-021010-
LOWER COLUMBIA BASIN...WASHINGTON

CITY            SKY/WX      TMP DP  RH  WIND    PRES   REMARKS
PASCO           CLEAR       40  32  73  S5      30.24R
PROSSER AWOS    N/A         37  28  70  SW5     30.28R
RICHLAND AWOS   CLEAR       39  30  70  W7      30.24R
#BASIN CITY 5SW N/A         42  32  67  W7      30.22R
#BENTON CITY    N/A         44  29  55  W13     30.14R WCI 38
#CONNELL 5N     N/A         34  29  82  CALM    30.22R
#CONNELL 5NW    N/A         37  31  79  W2      30.17R
#ELTOPIA        N/A         39  32  76  CALM    30.20R
#ELTOPIA 6NW    N/A         39  31  73  W9      29.17R
#KAHLOTUS       N/A         39  30  70  CALM    30.22R
#KENNEWICK 3S   N/A         38  35  89  SW5     30.24R
#PATERSON       N/A         41  35  79  W5      30.25R
#PROSSER        N/A         43  27  53  SW7     30.24R
#SAGEMOOR 2W    N/A         39  32  76  W5      30.07S
#TOUCHET 2S     N/A         42  34  73  SW14    30.23R WCI 35
#WEST PASCO     N/A         39  27  62  CALM    30.29R
$$

WAZ029-021010-
FOOTHILLS OF THE BLUES...WASHINGTON

CITY            SKY/WX      TMP DP  RH  WIND    PRES   REMARKS
WALLA WALLA AP  PTCLDY      41  32  70  S10     30.24R
#CLYDE 6NW      N/A         36  32  85  S9      30.23R
#DAYTON SCHOOL  N/A         40  27  59  S7      30.21R
#LOWDEN 2SE     N/A         41  34  76  W2      30.22R
#PLEASANT VIEW 1N/A         33  30  89  S7      30.27R
#PRESCOTT       N/A         40  35  82  S2      30.23R
#SUDBURY        N/A         42  N/A N/A CALM    N/A
#WHITMAN COLLEGEN/A         42  33  70  S5      30.30R
#WAITSBURG 5S   N/A         37  32  82  S15     30.34R WCI 28
#WALLA WALLA 5E N/A         41  33  73  S15     N/A    WCI 33
#WALLA WALLA U  N/A         43  34  70  CALM    30.25R
#WHITMAN MISSIONN/A         42  34  73  SW9     30.27R
$$

WAZ030-021010-
BLUE MOUNTAINS...WASHINGTON

CITY            SKY/WX      TMP DP  RH  WIND    PRES   REMARKS
#DAYTON 8SE     N/A         39  30  70  N5      29.98R
#DIXIE 5SE      N/A         34  28  78  S10     30.12R
$$

ORZ009-041-WAZ024-021010-
COLUMBIA RIVER GORGE

CITY            SKY/WX      TMP DP  RH  WIND    PRES   REMARKS
HOOD RIVER AP   CLOUDY      45  37  73  NW6     30.32R
THE DALLES AP   CLEAR       46  34  63  NW10    30.30R
#ARLINGTON AIRPON/A         39  34  82  W6      30.00R
#CELILO DOT     N/A         45  33  63  SW7     N/A
#LYLE           N/A         46  39  76  N10     30.33R
#MOSIER 1S      N/A         42  28  57  NW10    30.27S
#MURDOCK        N/A         47  39  74  NW12    30.32R WCI 42

$$

ORZ510-021010-
NORTH CENTRAL OREGON

CITY            SKY/WX      TMP DP  RH  WIND    PRES   REMARKS
#CHENOWITH 1W   N/A         38  33  82  W29     N/A    WCI 26
#COW CYN RST AREN/A         33  28  82  SW6     N/A
#DUFUR 9E       N/A         36  31  82  W7      30.35S
#GRASS VALLEY 1SN/A         30  26  85  W5      30.33S
#KENT DOT       N/A         29  24  81  SW8     N/A
#MAUPIN SCHOOL  N/A         37  30  75  CALM    30.31R
#MORO SCHOOL    N/A         39  35  85  W10     30.25S
#SHANIKO 5WSW   N/A         32  24  72  W7      N/A
#SHANIKO 4NW    N/A         30  26  85  W9      30.21S
#TYGH VALLEY 2NEN/A         33  28  82  CALM    30.32R
#WAPANITIA AIRPON/A         34  29  82  W1      30.32R
#WASCO DOT      N/A         39  33  79  W3      N/A
#WASCO AIRPORT  N/A         38  32  79  W10     N/A
#WASCO 5NE      N/A         38  33  82  W8      30.28R
$$

ORZ511-021010-
CENTRAL OREGON

CITY            SKY/WX      TMP DP  RH  WIND    PRES   REMARKS
BEND AIRPORT    PTCLDY      23  19  84  CALM    30.25S
MADRAS AIRPORT  CLOUDY      27  27  100 S6      30.29S
PRINEVILLE AP   PTCLDY      28  25  88  SW3     30.26R
REDMOND AIRPORT CLEAR       23  20  88  S5      30.26R
#BEND 6E        N/A         25  20  81  CALM    30.32R
#BEND 1SW       N/A         26  24  92  W2      N/A
#BEND-AWBREY    N/A         30  26  85  S3      30.34R
#BEND-KIM LN    N/A         28  25  88  SW2     30.22R
#CULVER         N/A         31  26  81  CALM    30.23R
#LAKE BILLY CHINN/A         30  22  72  CALM    30.35R
#POWELL BUTTE 3EN/A         28  24  85  E1      N/A
#POWELL BUTTE   N/A         31  24  75  SW3     29.86R
#PRINEVILLE 3N  N/A         24  22  92  CALM    30.32R
#WARM SPRINGS   N/A         31  26  81  CALM    30.26R

$$


ORZ509-021010-
EAST SLOPES OF OREGON CASCADES

CITY            SKY/WX      TMP DP  RH  WIND    PRES   REMARKS
#BLUE BOX PASS  N/A         29  -19 11  W2      N/A
#CAMP SHERMAN   N/A         25  21  84  CALM    30.37R
#LA PINE 4NW    N/A         25  21  84  CALM    30.37R
#SISTERS AIRPOR N/A         30  27  88  CALM    30.17S
#SISTERS ODOT   N/A         31  N/A N/A CALM    N/A
#SISTERS 1NW    N/A         33  24  69  E3      N/A
#SISTERS 3N     N/A         28  18  66  CALM    30.28R
#SUNRIVER       N/A         25  24  96  CALM    30.23R
#TUMALO 3W      N/A         28  23  81  W3      30.22R
#WANOGA BUTTE D N/A         24  13  62  CALM    N/A

$$

ORZ044-021010-
LOWER COLUMBIA BASIN...OREGON

CITY            SKY/WX      TMP DP  RH  WIND    PRES   REMARKS
HERMISTON       CLEAR       41  32  70  SW14    30.25R WCI 33
#BOARDMAN SCHOOLN/A         42  34  73  W3      30.28R
#BOARDMAN 8SW   N/A         39  34  82  SW6     30.26R
#ECHO 8SW       N/A         42  30  62  W9      30.22R
#IONE SCHOOL    N/A         40  28  62  SW3     30.25R
#IRRIGON 4NW    N/A         41  35  79  S8      N/A
#UMATILLA SCHOOLN/A         36  36  100 CALM    30.31R
#UMATILLA       N/A         39  34  82  CALM    30.18R
$$

ORZ507-021010-
NORTHERN FOOTHILLS OF THE BLUES

CITY            SKY/WX      TMP DP  RH  WIND    PRES   REMARKS
PENDLETON AIRPT PTCLDY      40  30  67  W13     30.22S WCI 32
#ADAMS 3WNW     N/A         36  31  82  CALM    30.28R
#ATHENA         N/A         38  31  76  CALM    30.29R
#CAYUSE         N/A         39  31  73  CALM    30.27R
#HELIX SCHOOL   N/A         36  31  82  S3      30.26R
#HELIX 3N       N/A         34  31  89  S7      30.18R
#HOLDMAN 5SE    N/A         38  32  79  W5      30.23R
#HOLDMAN 6E     N/A         35  31  85  NE3     30.07R
#M-F FERNDALE   N/A         43  32  65  CALM    30.23R
#M-F GROVE ELEM N/A         42  30  62  SW8     30.21S
#M-FREEWATER 5SEN/A         41  31  67  SW7     30.23R
#PENDLETON DNTN N/A         41  24  50  CALM    30.22F
#PDT AQUATIC CTRN/A         43  25  49  E1      30.19S
#PENDLETON 5NE  N/A         38  31  76  CALM    30.21R
#PDT SUNRIDGE   N/A         40  30  67  CALM    30.26R
#PENDLETON 7NW  N/A         40  31  70  W8      30.19R
#PILOT ROCK     N/A         39  26  59  S7      30.24R
#TUTUILLA       N/A         36  30  79  CALM    30.27R
#UMAPINE 2E     N/A         42  34  73  SW7     30.21R
#WESTON SCHOOL  N/A         38  28  67  W7      30.21S

$$

ORZ508-021010-
SOUTHERN FOOTHILLS OF THE BLUES

CITY            SKY/WX      TMP DP  RH  WIND    PRES   REMARKS
LEXINGTON       MOCLEAR     36  32  85  SE5     30.28R
#AJAX           N/A         37  24  59  S5      30.17R
#CONDON SCHOOL  N/A         32  28  85  CALM    30.18R
#CONDON 5W      N/A         31  26  81  SW10    30.18S
#FOSSIL SCHOOL  N/A         28  25  88  CALM    30.20R
#HEPPNER EOC    N/A         37  29  72  SW1     30.24S
#HEPPNER 4NE    N/A         33  28  82  SW6     30.29R
#LEXINGTON 2SE  N/A         36  29  75  S3      30.22R
#MIKKALO        N/A         38  28  67  W3      30.24R
#OLEX 4N        N/A         40  33  76  SW10    30.25R
#RUGGS 5NE      N/A         33  28  82  SW7     30.36S
#RUGGS 2SW      N/A         33  27  78  SW6     30.32R

$$

ORZ502-503-021010-
BLUE MOUNTAINS

CITY            SKY/WX      TMP DP  RH  WIND    PRES   REMARKS
MEACHAM         MOCLDY      30  26  85  CALM    30.18R
#BATTLE MTN DOT N/A         29  28  96  CALM    N/A
#HEPPNER 15SE   N/A         30  27  88  CALM    30.10S
#LADD CYN SMT   N/A         35  21  56  NW6     N/A
#LADD CREEK ODOTN/A         34  18  51  CALM    N/A
#LONG CREEK HS  N/A         33  31  92  CALM    30.17R
#N POWDER DOT   N/A         31  25  78  CALM    N/A
#PIKES PEAK     N/A         32  29  89  SW24G31 27.99S WCI 19
#TOLLGATE       N/A         26  25  96  SW5     30.07R
#TROY SCHOOL    N/A         34  28  78  NW1     30.09R
#UKIAH          N/A         24  22  92  CALM    30.33R
#WESTON 4E      N/A         33  29  85  SW5     30.21S
$$

ORZ505-021010-
JOHN DAY BASIN

CITY            SKY/WX      TMP DP  RH  WIND    PRES   REMARKS
JOHN DAY        CLOUDY      34  29  82  CALM    30.22R
#JOHN DAY KJDY  N/A         34  30  85  CALM    30.29F
#DAYVILLE SCHOOLN/A         36  27  69  CALM    30.21R
#MITCHELL       N/A         31  30  96  CALM    30.36R
#MITCHELL 8NW   N/A         33  26  75  SW1     30.25R
#MONUMENT HS    N/A         33  26  75  CALM    30.24R
#MT. VERNON 5SE N/A         31  27  85  CALM    30.16R
#WINLOCK        N/A         30  26  85  S2      30.29R
$$

ORZ506-021010-
OCHOCO AND JOHN DAY HIGHLANDS

CITY            SKY/WX      TMP DP  RH  WIND    PRES   REMARKS
#HORSE RIDGE DO N/A         14   9  80  CALM    N/A
#KEYES SMT DOT  N/A         29  25  85  S9      N/A
#PAULINA SCHOOL N/A         54  38  55  W3      30.15R
#PINE MTN OBS   N/A         22  20  92  N5      N/A
#PRAIRIE CITY   N/A         24  21  88  CALM    30.45S
#SENECA         N/A         29  N/A N/A CALM    N/A
#SENECA 9NW     N/A         29  26  88  CALM    30.28R
$$

ORZ049-021010-
GRANDE RONDE VALLEY

CITY            SKY/WX      TMP DP  RH  WIND    PRES   REMARKS
LA GRANDE       CLOUDY      37  21  52  NW6     30.19S
#COVE           N/A         36  30  79  CALM    30.19S
#COVE SCHOOL    N/A         34  28  78  CALM    30.16R
#ELGIN 3N       N/A         29  22  75  W3      30.17R
#ELGIN 1E       N/A         34  27  75  CALM    N/A
#IMBLER SCHOOL  N/A         33  24  69  CALM    30.15S
#ISLAND CITY 4N N/A         36  35  96  CALM    30.37R
#LADD CYN DOT   N/A         36  25  64  W3      N/A
#UNION 1S       N/A         36  28  72  CALM    30.19R
$$

ORZ050-021010-
WALLOWA COUNTY

CITY            SKY/WX      TMP DP  RH  WIND    PRES   REMARKS
JOSEPH AIRPORT  PTCLDY      27  21  78  W3      30.17R
#ENTERPRISE HS  N/A         26  20  78  CALM    30.16R
#IMNAHA 10S     N/A         33  23  66  SW3     30.16R
#JOSEPH 3N      N/A         22  19  88  CALM    30.16R
#JOSEPH 3W      N/A         27  17  65  CALM    29.97R
#LOSTINE        N/A         28  24  85  CALM    30.04R
#MT HOWARD 8000 N/A         16  12  84  W6      30.00S
#PROMISE 1S     N/A         32  26  78  CALM    30.34R
#SHEEP RDG 7000 N/A         21  17  84  CALM    30.34R
#WALLOWA SCHOOL N/A         30  26  85  CALM    31.20R



$$



USA.gov is the U.S. government's official web portal to all federal, state and local government web resources and services.